[Iaude] MPEC U257: 2022 QF265 [a=2.82,e=0.65,i=11.1,H=30.0]
    mpec at marsden.cfa.harvard.edu 
    mpec at marsden.cfa.harvard.edu
       
    Wed Oct 25 17:25:40 EDT 2023
    
    
  
M.P.E.C. 2023-U257                             Issued 2023 October 25, 21:24 UT
     The Minor Planet Electronic Circulars contain information on unusual
         minor planets, routine data on comets and natural satellites,
         and occasional editorial announcements.  They are published
    on behalf of Division F of the International Astronomical Union by the
          Minor Planet Center, Smithsonian Astrophysical Observatory,
                          Cambridge, MA 02138, U.S.A.
			  
             Prepared using the Tamkin Foundation Computer Network
                              MPC at CFA.HARVARD.EDU
            URL https://www.minorplanetcenter.net/    ISSN 1523-6714
                                   2022 QF265                                   
Observations:
     K22QQ5F* C2022 08 24.48911819 56 43.159-00 19 41.23         18.0 GVEU257P07
     K22QQ5F  C2022 08 24.54204720 16 26.650+05 39 27.11         18.4 GVEU257P07
     K22QQ5F  C2022 08 24.60399520 37 18.264+11 50 58.49         18.4 GVEU257P07
     K22QQ5F  C2022 08 24.71055421 07 56.182+20 12 16.02         18.6 GVEU257P07
     K22QQ5F  C2022 08 24.76324321 20 56.892+23 21 26.35         18.6 GVEU257P07
Observer details:
P07 Space Surveillance Telescope, HEH Station.  Observers M. Blythe, R.
    Brungard, P. Festler, T. McVey, J. Paige, G. Spitz, L. Banks.  Measurers
    M. Cornell, M. Kotson, R. Rios, J. Ruprecht, J. Vaillancourt, J. Varey, H.
    Viggh, D. Woods, R. Monardez, A. Lue.  3.5-m f/1. Reflector + CCD.
Orbital elements:
2022 QF265                                               Earth MOID = 0.0010 AU
Epoch 2023 Sept. 13.0 TT = JDT 2460200.5                Veres                   
M  82.75950              (2000.0)            P               Q                  
n   0.20803136     Peri.  343.55222     +0.70003295     +0.70781638             
a   2.8208729      Node   330.66830     -0.63150927     +0.55175480             
e   0.6468996      Incl.   11.13503     -0.33339153     +0.44109252             
P   4.74           H   30.02          G   0.15           U   9                  
Residuals in seconds of arc
220824 P07  0.1-  0.2-    220824 P07  0.1-  0.0     220824 P07  0.1+  0.4+
220824 P07  0.2+  0.3+    220824 P07  0.1-  0.5-
Ephemeris:
2022 QF265               a,e,i = 2.82, 0.65, 11                  q = 0.9961
Date    TT    R. A. (2000) Decl.     Delta      r    Elong.  Phase     V
2023 09 25    08 06 49.1 +27 55 31   4.0104  3.6771    63.7    14.2
...
2023 10 10    08 16 57.7 +27 41 43   3.8562  3.7431    76.0    15.0
...
2023 10 18    08 21 00.8 +27 39 03   3.7665  3.7771    83.0    15.2
...
2023 10 24    08 23 21.2 +27 39 33   3.6973  3.8022    88.4    15.2
2023 10 25    08 23 40.9 +27 39 51   3.6856  3.8064    89.3    15.1
2023 10 26    08 23 59.6 +27 40 13   3.6740  3.8105    90.3    15.1
...
2023 11 01    08 25 28.4 +27 43 47   3.6040  3.8350    95.9    14.9
...
2023 11 09    08 26 21.9 +27 52 16   3.5115  3.8670   103.6    14.4
...
2023 11 24    08 24 25.5 +28 19 19   3.3494  3.9252   119.1    12.7
M. P. C. Staff               (C) Copyright 2023 MPC           M.P.E.C. 2023-U257
    
    
More information about the Iaude
mailing list